DELTA 4 R/B, 35492

Orbit data source: Space-Track

DELTA 4 R/B, 35492 is space debris in HEO originally from a launch on Sat, 27 Jun 2009 UTC launched from the Air Force Eastern Test Range (AFETR). Debris objects in space refer to the collection of defunct objects orbiting the Earth. Examples of debris include non-operational satellites, rocket bodies, and fragments generated from explosions, collisions, or faulty payload assembly.

Loading next visibility...
Identifier
35492, 2009-033B
Orbit
HEO
Country
Flag of USUS
Related business
Flag of USUnited Launch Alliance/Lockheed Martin (US)
Manufacturer
ULA Decatur
Mission
2))"
Bus & Motor
DCSS-4, RL10B-2
Mass
2,850 kg wet, 2,850 kg dry
Launch date (UTC)
2009-06-27 (16 years ago)
Launch vehicle
Unknown
Launch site
Air Force Eastern Test Range (AFETR)
Object type
Payload
Rocket body
Debris
Shape & HBR
Cyl + 1 Nozzle, Unknown HBR
Radar Cross Section
43.982 m², Large (>1 m²)

Expand to show TLE details & history
Last TLE update: 1 day ago

TLE from 1 day ago
0 DELTA 4 R/B
1 35492U 09033B   25260.60126705 -.00000128  00000-0  00000-0 0  9992
2 35492  12.8100 114.1624 5182872  68.2269  57.1252  1.93161193114497
Epoch: 2025-09-17T14:25Z
TLE epoch observation values (Epoch: 2025-09-17T14:25:49.473Z)
Latitude
-1.46929°
Longitude
87.54434°
Altitude
20,085.57 km
Speed
3.936 km/s
True Right ascension
20h 03m 06s
True Declination
-1° 28' 01"
Sunlit
Object was in daylight at epoch
Visualization orbit readout
Latitude
Unknown
Longitude
Unknown
Altitude
Unknown
Speed
Unknown
Apparent Right ascension
Unknown
Apparent Declination
Unknown
Sunlit
N/A
Visualization observer readout
Local Sidereal Time
13:00:58
Azimuth
Unknown
Elevation
Unknown
Doppler factor
Unknown
Orbital elements
Apogee altitude
34,975.557 km
Perigee altitude
6,742.308 km
Semi-major axis
27,237.069 km
Eccentricity
0.51829
Inclination
12.81°
RAAN
114.1624°
Arg. of periapsis
68.2269°
True anomaly
118.41732°
Mean anomaly
57.1252°
Eccentric anomaly
86.77381°
Mean motion
0.48284 °/min
Orbital period
745.59 mins
BSTAR
0
Loading maneuver chart data...
Computing Atmospheric mass density...
Loading historical data...
Loading historical data...
Loading historical data...
Loading historical data...
Loading historical data...
Loading historical data...
Loading historical data...
Other satellites on launch #33 in the year 2009 (2009-06-27 UTC)

Documentation

Showing up to 5 results
|